Погода в Мата-ди-Сан-Жуан

Бразилия     12°31′39″S   38°18′19″W
темп.,
°C
ветер,
м/с
пор.,
м/с
влажн.,
%
обл.,
%
осадки,
мм/ч
давл.,
гПа
погр.,
м
27 февраля, сб
сб2700:00+22в12911 0.0 101246
03:00+22всв129541 0.1 101126
06:00+22св11951 0.0 101224
09:00+27в35689 1.5 10131019
12:00+31в455067 0.9 10121485
15:00+30вюв565348 1.8 10101357
18:00+25вюв277852 0.1 1010600
21:00+23вюв159563 0.1 1012169
28 февраля, вс
вс2800:00+22вюв129654 0.0 101224
03:00+21з119730 0.0 101023
06:00+21зсз119650 0.0 101125
09:00+30вюв235457 0.0 10121188
12:00+32вюв244382 0.6 10111731
15:00+32вюв454389 0.6 10091421
18:00+25вюв277159 0.0 1009478
21:00+23вюв128842 0.0 101128
1 марта, пн
пн100:00+22всв129144 0.0 101039
03:00+22сз009643 0.0 100923
06:00+22з11953 0.1 101024
09:00+26вюв268018 3.1 1012819
12:00+27в477885 7.5 10111005
15:00+26вюв488490 16.7 1009862
18:00+24вюв298821 0.9 1010489
21:00+23вюв289217 1.0 1012304
2 марта, вт
вт200:00+22вюв149040 0.1 1012133
03:00+21всв119345 0.1 101124
06:00+21ссв019344 0.1 101223
09:00+29в355522 0.1 10141346
12:00+31вюв454439 0.0 10131658
15:00+30вюв463923 0.0 10111431
18:00+24вюв27730 0.0 1012303
21:00+22в12861 0.0 101438
3 марта, ср
ср300:00+21в11929 0.0 101425
03:00+20ссв00965 0.0 101323
06:00+21юз01944 0.0 101423
09:00+26ююз137248 0.0 1016467
12:00+29юв235599 0.0 10151365
15:00+29вюв456080 0.6 10131213
18:00+25вюв27783 0.0 1013444
21:00+23вюв16924 0.0 1014211